| time (UTC) | temp F | wind direction | speed knots | gust knots | rain 1hr in | rain 24hr in | rain mn in | humidity % | barometer mb |
| 20260503020006 | 35 | 305 | 0.0 | 0.0 | 0.00 | 0.00 | 0.00 | 73 | 1015.2 |
| 20260503014507 | 35 | 305 | 0.0 | 0.0 | 0.00 | 0.00 | 0.00 | 73 | 1015.2 |
| 20260503013005 | 36 | 305 | 0.0 | 0.0 | 0.00 | 0.00 | 0.00 | 72 | 1015.2 |
| 20260503011507 | 37 | 305 | 0.0 | 0.0 | 0.00 | 0.00 | 0.00 | 70 | 1015.2 |
| 20260503010005 | 38 | 305 | 0.0 | 0.0 | 0.00 | 0.00 | 0.00 | 69 | 1015.1 |
| 20260503004507 | 39 | 305 | 0.0 | 0.0 | 0.00 | 0.00 | 0.00 | 63 | 1015.2 |
| 20260503003005 | 40 | 305 | 0.0 | 0.0 | 0.00 | 0.00 | 0.00 | 59 | 1015.2 |
| 20260503001506 | 41 | 305 | 0.0 | 0.0 | 0.00 | 0.00 | 0.00 | 56 | 1015.2 |
| 20260503000010 | 42 | 305 | 0.0 | 0.9 | 0.00 | 0.00 | 0.00 | 50 | 1015.3 |
| 20260502234506 | 42 | 305 | 0.0 | 2.6 | 0.00 | 0.00 | 0.00 | 49 | 1015.2 |
| 20260502233005 | 43 | 305 | 0.0 | 2.6 | 0.00 | 0.00 | 0.00 | 48 | 1015.4 |
| 20260502231506 | 43 | 305 | 0.9 | 2.6 | 0.00 | 0.00 | 0.00 | 49 | 1015.4 |
| 20260502230005 | 43 | 305 | 0.0 | 2.6 | 0.00 | 0.00 | 0.00 | 47 | 1015.4 |
| 20260502224506 | 43 | 305 | 1.7 | 3.5 | 0.00 | 0.00 | 0.00 | 50 | 1015.5 |
| 20260502223007 | 43 | 305 | 0.0 | 1.7 | 0.00 | 0.00 | 0.00 | 52 | 1015.6 |
| 20260502221508 | 43 | 305 | 0.0 | 2.6 | 0.00 | 0.00 | 0.00 | 54 | 1015.7 |
| 20260502220006 | 43 | 305 | 0.0 | 2.6 | 0.00 | 0.00 | 0.00 | 51 | 1015.8 |
| 20260502214505 | 43 | 305 | 0.9 | 2.6 | 0.00 | 0.00 | 0.00 | 53 | 1015.8 |
| 20260502213007 | 43 | 305 | 1.7 | 3.5 | 0.00 | 0.00 | 0.00 | 53 | 1015.8 |
| 20260502211506 | 44 | 305 | 0.9 | 3.5 | 0.00 | 0.00 | 0.00 | 56 | 1015.9 |
| 20260502210007 | 42 | 305 | 0.9 | 4.3 | 0.00 | 0.00 | 0.00 | 56 | 1016.0 |
| 20260502204515 | 43 | 305 | 0.9 | 2.6 | 0.00 | 0.00 | 0.00 | 54 | 1016.1 |
| 20260502203014 | 42 | 305 | 1.7 | 4.3 | 0.00 | 0.00 | 0.00 | 59 | 1016.2 |
| 20260502201506 | 42 | 345 | 0.9 | 3.5 | 0.00 | 0.00 | 0.00 | 62 | 1016.3 |
| 20260502200007 | 42 | 345 | 0.9 | 3.5 | 0.00 | 0.00 | 0.00 | 62 | 1016.5 |
| 20260502194506 | 44 | 348 | 1.7 | 3.5 | 0.00 | 0.00 | 0.00 | 61 | 1016.7 |
| 20260502193006 | 43 | 338 | 1.7 | 4.3 | 0.00 | 0.00 | 0.00 | 59 | 1016.8 |
| 20260502191512 | 44 | 322 | 1.7 | 5.2 | 0.00 | 0.00 | 0.00 | 58 | 1016.9 |
| 20260502190007 | 43 | 314 | 2.6 | 5.2 | 0.00 | 0.00 | 0.00 | 58 | 1016.9 |
| 20260502184508 | 43 | 319 | 0.9 | 5.2 | 0.00 | 0.00 | 0.00 | 57 | 1016.9 |
| 20260502183007 | 43 | 316 | 1.7 | 4.3 | 0.00 | 0.00 | 0.00 | 59 | 1017.0 |
| 20260502181506 | 45 | 311 | 1.7 | 6.1 | 0.00 | 0.00 | 0.00 | 62 | 1017.0 |
| 20260502163012 | 44 | 304 | 3.5 | 10.4 | 0.00 | 0.00 | 0.00 | 63 | 1017.2 |
| 20260502161508 | 42 | 323 | 3.5 | 10.4 | 0.00 | 0.00 | 0.00 | 65 | 1017.3 |
| 20260502151507 | 42 | 307 | 3.5 | 9.6 | 0.00 | 0.00 | 0.00 | 72 | 1017.2 |
| 20260502123008 | 39 | 317 | 1.7 | 6.1 | 0.00 | 0.00 | 0.00 | 73 | 1017.2 |
| 20260502121510 | 39 | 302 | 2.6 | 7.0 | 0.00 | 0.00 | 0.00 | 74 | 1017.0 |
| 20260502114509 | 38 | 319 | 0.9 | 4.3 | 0.00 | 0.00 | 0.00 | 81 | 1017.0 |
| 20260502113008 | 37 | 274 | 0.9 | 5.2 | 0.00 | 0.00 | 0.00 | 80 | 1016.8 |
| 20260502111508 | 37 | 289 | 0.9 | 4.3 | 0.00 | 0.00 | 0.00 | 81 | 1016.8 |
| 20260502110008 | 38 | 301 | 1.7 | 7.8 | 0.00 | 0.00 | 0.00 | 80 | 1016.7 |
| 20260502104514 | 38 | 286 | 0.9 | 7.8 | 0.00 | 0.00 | 0.00 | 81 | 1016.6 |
| 20260502103009 | 37 | 319 | 1.7 | 6.1 | 0.00 | 0.00 | 0.00 | 79 | 1016.5 |
| 20260502101508 | 37 | 292 | 1.7 | 6.1 | 0.00 | 0.00 | 0.00 | 79 | 1016.5 |
| 20260502091509 | 37 | 311 | 0.9 | 7.8 | 0.00 | 0.00 | 0.00 | 74 | 1016.3 |
| 20260502071509 | 38 | 281 | 1.7 | 7.0 | 0.00 | 0.00 | 0.00 | 70 | 1015.8 |
| 20260502070010 | 37 | 323 | 1.7 | 5.2 | 0.00 | 0.00 | 0.00 | 71 | 1015.9 |
| 20260502064517 | 38 | 296 | 1.7 | 4.3 | 0.00 | 0.00 | 0.00 | 72 | 1016.3 |
| 20260502063014 | 37 | 316 | 0.0 | 4.3 | 0.00 | 0.00 | 0.00 | 72 | 1016.3 |
| 20260502061510 | 38 | 317 | 0.9 | 5.2 | 0.00 | 0.00 | 0.00 | 73 | 1016.4 |
| 20260502060009 | 38 | 307 | 1.7 | 5.2 | 0.00 | 0.00 | 0.00 | 72 | 1016.4 |
| 20260502054509 | 38 | 316 | 0.9 | 4.3 | 0.00 | 0.00 | 0.00 | 73 | 1016.5 |
| 20260502053012 | 38 | 300 | 1.7 | 6.1 | 0.00 | 0.00 | 0.00 | 71 | 1016.4 |
| 20260502051510 | 38 | 281 | 0.9 | 6.1 | 0.00 | 0.00 | 0.00 | 72 | 1016.4 |
| 20260502050013 | 38 | 304 | 1.7 | 5.2 | 0.00 | 0.00 | 0.00 | 73 | 1016.3 |
| 20260502044509 | 37 | 316 | 0.0 | 5.2 | 0.00 | 0.00 | 0.00 | 75 | 1016.3 |
| 20260502043010 | 37 | 300 | 1.7 | 6.1 | 0.00 | 0.00 | 0.00 | 74 | 1016.4 |
| 20260502041516 | 37 | 321 | 0.0 | 2.6 | 0.00 | 0.00 | 0.00 | 75 | 1016.4 |
| 20260502040010 | 37 | 302 | 0.9 | 3.5 | 0.00 | 0.00 | 0.00 | 76 | 1016.2 |
| 20260502034510 | 37 | 305 | 0.9 | 3.5 | 0.00 | 0.00 | 0.00 | 76 | 1016.3 |
| 20260502033013 | 37 | 289 | 1.7 | 5.2 | 0.00 | 0.00 | 0.00 | 77 | 1016.3 |
| 20260502031510 | 37 | 308 | 0.9 | 6.1 | 0.00 | 0.00 | 0.00 | 78 | 1016.2 |
| 20260502030019 | 37 | 327 | 0.0 | 6.1 | 0.00 | 0.00 | 0.00 | 78 | 1016.2 |
| 20260502024510 | 37 | 329 | 1.7 | 7.8 | 0.00 | 0.00 | 0.00 | 78 | 1016.3 |
| 20260502023011 | 37 | 335 | 0.9 | 5.2 | 0.00 | 0.00 | 0.00 | 78 | 1016.3 |
| 20260502021510 | 37 | 316 | 1.7 | 6.1 | 0.00 | 0.00 | 0.00 | 79 | 1016.2 |